Showing default

ARC-1, 40969

Orbit data source: Space-Track

ARC-1, 40969 is a payload satellite owned by Alaska (US) in LEO that was launched on Thu, 08 Oct 2015 UTC via an ATLAS V 401 launch vehicle from the Air Force Western Test Range (AFWTR). Payload-class satellites include a variety of spacecraft equipped with specific instruments for various scientific and technological missions. These include communications satellites like Starlink; space stations such as the ISS; scientific satellites like the Hubble; Earth observation satellites from companies like Planet Labs, Umbra, and HawkEye 360; GPS; miniature CubeSats for education and research; and military/defense satellites.

Loading next visibility...
Identifier
40969, 2015-058F
Orbit
LEO
Country
Flag of USUS
Related business
Manufacturer
Alaska
Mission
Non-operational Amateur Technology
Bus & Motor
CUBESAT 1U, Unknown motor
Mass
1 kg wet, 1 kg dry
Launch date (UTC)
2015-10-08 (10 years ago)
Launch vehicle
ATLAS V 401
Launch site
Air Force Western Test Range (AFWTR)
Object type
Payload
Rocket body
Debris
Shape & HBR
Box, 0.1 m
Radar Cross Section
0.015 m², Medium (>0.1 m² and < 1m²)

Expand to show TLE details & history
Last TLE update: 15 hours ago

TLE from 15 hours ago
0 ARC-1
1 40969U 15058F   25302.36908699  .00039220  00000-0  13927-2 0  9999
2 40969  64.7680 168.4469 0055826 140.7099 219.8103 15.27336118 81533
Epoch: 2025-10-29T08:51Z
TLE epoch observation values (Epoch: 2025-10-29T08:51:29.115Z)
Latitude
-0.00008°
Longitude
-2.36766°
Altitude
515.336 km
Speed
7.59 km/s
True Right ascension
11h 13m 47s
True Declination
0° 00' 00"
Sunlit
Object was in daylight at epoch
Visualization orbit readout
Latitude
Unknown
Longitude
Unknown
Altitude
Unknown
Speed
Unknown
Apparent Right ascension
Unknown
Apparent Declination
Unknown
Sunlit
N/A
Visualization observer readout
Local Sidereal Time
19:49:48
Azimuth
Unknown
Elevation
Unknown
Doppler factor
Unknown
Orbital elements
Apogee altitude
520.623 km
Perigee altitude
444.025 km
Semi-major axis
6,860.461 km
Eccentricity
0.00558
Inclination
64.768°
RAAN
168.4469°
Arg. of periapsis
140.7099°
True anomaly
219.40291°
Mean anomaly
219.8103°
Eccentric anomaly
219.60639°
Mean motion
3.81956 °/min
Orbital period
94.25 mins
BSTAR
0.0013927
Loading maneuver chart data...
Computing Atmospheric mass density...
Loading historical data...
Loading historical data...
Loading historical data...
Loading historical data...
Loading historical data...
Loading historical data...
Loading historical data...

Documentation

Showing up to 5 results
|